Change the Weather History Date:

Tuesday, August 20, 2013

  Actual Average Record
Temperature  
Mean Temperature 71 °F 64 °F  
Max Temperature 86 °F 77 °F 91 °F (1948)
Min Temperature 56 °F 50 °F 33 °F (1950)
Degree Days  
Heating Degree Days 0 3  
Month to date heating degree days 49 48  
Since 1 June heating degree days 284 329  
Since 1 July heating degree days 91 109  
Cooling Degree Days 6 2  
Month to date cooling degree days 20 40  
Year to date cooling degree days 94 147  
Since 1 June cooling degree days 92 146  
Growing Degree Days 20 (Base 50)    
Moisture  
Dew Point 50 °F    
Average Humidity 57    
Maximum Humidity 86    
Minimum Humidity 27    
Precipitation  
Precipitation 0.00 in 0.06 in 0.95 in (1969)
Month to date precipitation 3.89 1.37  
Year to date precipitation 15.89 14.14  
Sea Level Pressure  
Sea Level Pressure 29.87 in    
Wind  
Wind Speed 4 mph (NNW)    
Max Wind Speed 13 mph    
Max Gust Speed 18 mph    
Visibility 10 miles    
Events      
T = Trace of Precipitation, MM = Missing Value Source: NWS Daily Summary

Daily Weather History Graph

Daily Weather History Graph

Search for Another Location

Airport or City:

Trip Planner

Search our weather history database for the weather conditions in past years. The results will help you decide how hot, cold, wet, or windy it might be!

Date:

Astronomy

Aug. 20, 2013 Rise Set
Actual Time 6:04 AM MDT 7:49 PM MDT
Civil Twilight 5:34 AM MDT 8:20 PM MDT
Nautical Twilight 4:56 AM MDT 8:57 PM MDT
Astronomical Twilight 4:16 AM MDT 9:37 PM MDT
Moon 7:20 PM MDT (8/20) 5:38 AM MDT (8/20)
Length of Visible Light 14h 46m
Length of Day
13h 45m
Full, 100% of the Moon is Illuminated
Aug 20
Full
Aug 20
Full
Aug 28
Last Quarter
Sep 5
New
Sep 12
First Quarter

Hourly Weather History & Observations

Time (MDT) Temp. Heat Index Dew Point Humidity Pressure Visibility Wind Dir Wind Speed Gust Speed Precip Events Conditions
12:53 AM 59.0 °F - 53.1 °F 81% 29.89 in 10.0 mi NW 4.6 mph - N/A   Clear
1:53 AM 59.0 °F - 53.1 °F 81% 29.87 in 10.0 mi Calm Calm - N/A   Clear
2:53 AM 57.9 °F - 53.1 °F 84% 29.86 in 10.0 mi NW 4.6 mph - N/A   Clear
3:53 AM 57.0 °F - 52.0 °F 83% 29.86 in 10.0 mi NW 4.6 mph - N/A   Clear
4:53 AM 55.9 °F - 50.0 °F 80% 29.86 in 10.0 mi NNW 5.8 mph - N/A   Clear
5:53 AM 57.9 °F - 48.0 °F 70% 29.86 in 10.0 mi NNW 5.8 mph - N/A   Clear
6:53 AM 57.9 °F - 48.0 °F 70% 29.88 in 10.0 mi NNW 3.5 mph - N/A   Clear
7:53 AM 64.0 °F - 53.1 °F 67% 29.88 in 10.0 mi NNW 3.5 mph - N/A   Clear
8:53 AM 73.9 °F - 55.0 °F 52% 29.86 in 10.0 mi NE 4.6 mph - N/A   Clear
9:53 AM 80.1 °F 80.0 °F 54.0 °F 40% 29.86 in 10.0 mi NE 4.6 mph - N/A   Clear
10:53 AM 82.9 °F 81.8 °F 53.1 °F 36% 29.87 in 10.0 mi ENE 9.2 mph - N/A   Clear
11:53 AM 84.0 °F - 48.0 °F 28% 29.87 in 10.0 mi ESE 9.2 mph - N/A   Clear
12:53 PM 86.0 °F - 48.0 °F 27% 29.87 in 10.0 mi Variable 4.6 mph - N/A   Clear
1:53 PM 82.9 °F - 50.0 °F 32% 29.87 in 10.0 mi Calm Calm - N/A   Clear
2:53 PM 81.0 °F 80.5 °F 54.0 °F 39% 29.88 in 10.0 mi West 5.8 mph - N/A   Partly Cloudy
3:53 PM 84.9 °F - 48.9 °F 29% 29.87 in 10.0 mi Calm Calm - N/A   Scattered Clouds
4:53 PM 79.0 °F - 53.1 °F 40% 29.88 in 10.0 mi NE 5.8 mph - N/A   Scattered Clouds
5:53 PM 78.1 °F - 53.1 °F 42% 29.88 in 10.0 mi West 4.6 mph - N/A   Overcast
6:53 PM 77.0 °F - 46.9 °F 34% 29.88 in 10.0 mi Calm Calm - N/A   Partly Cloudy
7:53 PM 73.9 °F - 48.9 °F 41% 29.89 in 10.0 mi WSW 3.5 mph - N/A   Clear
8:53 PM 75.0 °F - 44.1 °F 33% 29.88 in 10.0 mi SSW 5.8 mph - N/A   Overcast
9:53 PM 72.0 °F - 44.1 °F 37% 29.87 in 10.0 mi West 3.5 mph - N/A   Clear
10:53 PM 71.1 °F - 44.1 °F 38% 29.86 in 10.0 mi NW 4.6 mph - N/A   Partly Cloudy
11:53 PM 69.1 °F - 44.1 °F 40% 29.88 in 10.0 mi Calm Calm - N/A   Mostly Cloudy